Temperature
18 18 18 18 18 18 18 18 18 18 18 18 18 18 18 18 18 18 18 18 18 18 18 19 19 19 19 18 18 18 18 18 18 18 18 18 18 18 18 17 17 17 17
18 18 18 18 18 18 18 18 18 18 18 18 18 18 18 18 18 18 18 18 18 18 18 18 19 19 19 19 18 18 18 18 18 18 18 18 18 18 18 18 17 17 17
18 18 18 18 18 18 18 18 18 18 18 18 18 18 18 18 18 18 18 18 18 18 18 18 18 19 19 18 18 18 18 18 18 18 18 18 18 18 18 18 18 17 17
17 17 17 17 17 17 17 17 17 17 17 17 17 18 18 18 18 18 18 18 18 18 18 18 18 18 18 18 18 18 18 18 18 18 18 18 18 18 18 17 17 18 17
17 17 17 17 17 17 17 17 17 17 17 17 17 18 18 18 18 18 18 18 18 18 18 18 18 18 18 18 18 18 18 18 18 18 18 18 18 18 17 17 17 17 17
17 16 16 16 16 16 16 16 16 16 16 17 17 17 18 18 18 18 18 18 18 18 18 18 18 18 18 18 18 18 18 18 18 18 18 18 18 18 17 17 17 17 17
16 16 16 16 16 16 16 16 16 16 16 16 16 17 18 18 18 18 18 18 18 18 18 18 18 18 18 18 18 18 18 18 18 18 18 18 18 17 17 17 17 17 17
16 16 15 16 15 15 15 16 15 16 16 16 16 17 17 18 18 18 18 18 18 18 18 18 18 18 17 17 18 18 18 18 18 18 18 17 17 17 17 17 17 17 17
15 15 15 15 15 15 15 15 15 15 16 16 16 17 17 18 19 19 19 18 18 18 18 18 18 18 17 17 17 17 17 17 17 17 17 17 17 17 17 17 17 17 17
15 15 15 15 15 15 15 15 15 15 15 16 16 16 17 17 18 18 19 19 19 18 18 18 18 18 17 17 17 17 17 17 17 17 17 17 17 17 17 17 17 17 17
15 15 14 14 14 14 14 14 15 15 15 15 16 16 16 17 17 18 18 18 18 18 18 18 18 18 17 17 17 17 17 17 17 17 17 17 17 17 17 17 17 17 17
15 15 14 14 14 14 14 14 14 14 15 15 15 16 16 16 17 17 18 18 18 18 18 18 18 18 17 17 17 17 17 17 17 17 17 17 17 17 17 17 17 17 17
14 14 14 14 14 13 13 14 14 14 14 14 15 15 15 16 16 17 17 18 18 18 18 18 18 17 17 17 17 17 17 17 17 17 17 17 17 17 17 17 17 17 16
14 14 14 13 13 13 13 13 13 13 13 13 14 14 15 15 15 16 16 17 18 18 18 18 18 17 17 17 17 16 17 17 17 17 17 17 17 17 17 17 17 17 16
13 13 13 13 13 13 12 12 12 12 12 13 13 13 14 14 15 15 16 16 16 17 17 17 17 17 17 17 17 16 17 16 17 17 17 17 17 17 17 17 17 17 17
12 12 12 12 12 12 12 12 12 12 12 12 12 12 13 13 14 14 15 15 15 16 16 17 17 16 16 16 16 16 16 16 16 16 16 16 16 17 17 17 17 16 16
11 11 11 11 12 12 11 11 11 11 11 11 11 12 12 12 13 13 14 14 15 15 15 16 16 16 16 16 16 15 15 15 15 15 16 16 16 16 16 16 16 16 16
10 10 10 11 11 11 11 11 11 11 11 11 11 11 11 11 12 12 13 13 14 14 14 15 15 15 15 15 15 15 15 15 15 15 15 15 15 15 16 16 16 16 16
10 10 10 10 10 10 10 11 11 11 11 11 11 11 11 11 11 12 12 12 13 13 14 14 14 14 15 15 14 14 14 14 14 14 14 15 15 15 15 15 15 15 16
9 9 9 9 9 9 10 10 10 10 10 11 11 11 11 10 11 11 11 11 12 12 13 13 13 14 14 14 14 14 13 13 13 13 14 14 14 14 14 14 15 15 15
8 8 8 8 9 9 9 9 10 10 10 10 10 10 10 10 10 10 11 11 11 11 12 12 12 13 13 13 13 14 13 13 13 13 13 13 13 13 14 14 14 14 14
8 8 8 8 8 8 8 9 9 9 10 10 10 10 10 10 10 10 10 10 10 11 11 11 12 12 13 13 13 13 13 12 12 12 12 12 12 13 13 13 13 13 13
7 7 7 7 7 7 8 8 8 9 9 9 9 9 9 10 10 10 10 10 10 10 11 11 11 12 12 13 13 13 13 13 13 13 12 11 11 12 12 12 12 13 13
7 7 7 7 7 7 7 7 8 8 8 9 9 9 9 10 10 10 10 10 10 10 10 11 11 12 12 12 13 13 13 12 12 12 12 11 11 11 11 12 12 12 12
7 7 7 7 7 7 7 7 7 7 8 8 8 9 9 9 10 10 9 10 10 10 10 10 11 11 11 11 12 12 12 12 12 11 11 11 11 11 11 11 11 11 11
7 7 7 7 6 7 7 7 7 7 7 8 8 8 9 9 9 9 9 9 9 10 10 10 10 11 11 11 11 12 12 12 12 11 11 11 11 11 10 10 11 11 11
Wind_Speed
5 6 3 3 5 7 7 6 6 7 8 8 8 8 8 10 12 11 9 21 22 22 22 22 21 21 21 21 21 21 22 22 22 22 21 20 19 18 17 17 17 17 16
4 5 5 5 5 5 5 3 5 6 6 6 7 7 7 9 10 10 10 16 21 23 23 23 22 23 22 22 22 22 23 23 23 24 23 23 22 21 20 19 18 18 18
5 5 6 7 6 7 6 5 5 4 7 7 9 9 8 8 8 9 11 12 16 22 24 24 24 23 23 23 23 23 24 24 25 25 25 25 24 23 23 22 21 20 20
6 5 6 7 6 5 5 6 6 6 6 6 7 8 7 7 9 9 10 11 13 15 21 26 25 25 25 24 24 24 24 25 25 25 26 26 25 25 24 24 23 22 22
6 5 6 6 5 6 6 7 6 6 6 7 8 8 7 7 8 11 10 11 13 15 15 23 27 26 26 25 25 24 25 25 26 26 26 26 26 25 25 25 25 24 24
5 4 5 6 6 6 6 6 6 5 5 6 8 8 7 8 8 9 10 9 10 14 16 16 19 22 25 25 25 24 24 25 25 26 26 26 26 26 26 26 25 25 25
5 4 5 4 4 5 6 7 6 6 6 5 5 6 6 8 8 7 8 8 9 11 12 13 15 15 17 25 25 25 25 25 25 25 25 26 26 26 26 25 25 25 25
3 4 4 4 4 5 5 5 5 4 5 6 5 4 5 5 6 10 8 8 7 6 8 10 12 12 11 14 20 25 24 24 24 23 23 25 25 26 26 26 25 25 26
2 3 3 3 4 3 4 4 5 6 5 4 5 4 4 3 3 5 8 8 7 5 5 6 8 11 12 11 13 20 22 21 21 21 22 23 24 25 26 26 25 25 25
3 3 3 3 2 2 3 4 4 4 4 5 4 5 5 2 1 1 3 5 7 5 4 4 7 8 11 9 10 13 18 18 18 18 19 20 21 23 24 24 24 24 24
4 4 3 2 2 2 2 2 3 3 3 4 4 4 5 5 5 3 3 3 4 5 4 3 2 4 7 8 8 11 16 16 16 15 15 17 19 21 22 23 23 24 24
5 5 5 3 2 2 1 1 2 3 3 4 4 4 3 3 3 3 4 5 5 5 7 5 5 4 4 6 8 12 13 12 12 12 12 13 14 16 18 21 22 22 23
4 4 4 4 3 2 2 2 2 3 3 3 4 4 4 4 3 4 3 4 5 4 5 5 5 5 6 9 11 13 11 10 9 8 9 9 10 11 13 15 17 18 19
7 6 4 5 5 5 5 4 3 3 3 3 5 4 4 4 3 4 3 3 3 3 3 5 5 6 6 10 13 12 9 9 8 7 7 7 7 8 8 10 11 13 15
9 8 6 5 6 7 6 5 4 5 4 4 4 4 3 4 3 3 3 2 2 3 4 3 3 6 7 10 13 10 10 9 8 7 6 6 6 6 6 6 7 9 10
9 9 9 9 8 7 7 7 6 6 6 5 4 4 4 3 3 3 3 3 2 3 3 3 4 6 7 9 11 11 12 12 9 9 8 8 7 7 6 5 5 5 6
9 9 9 9 9 9 8 8 8 8 8 7 6 6 6 5 4 3 2 2 3 3 5 3 2 5 7 9 8 10 12 10 8 9 9 9 9 8 7 6 5 4 3
10 10 9 10 11 11 10 10 11 10 9 9 8 7 7 6 6 4 3 3 2 2 3 4 3 5 6 8 9 8 8 10 10 10 11 11 11 10 9 8 7 6 5
10 10 10 10 11 12 11 10 11 11 10 10 9 9 8 8 7 6 5 5 3 3 2 3 4 4 6 8 9 7 8 7 9 11 12 11 12 12 11 10 10 9 8
11 11 11 10 11 11 12 11 11 11 11 10 10 9 9 9 9 8 7 7 5 4 4 4 4 4 6 8 9 9 7 6 6 8 8 10 12 13 12 11 10 10 10
14 12 11 11 11 11 13 12 11 12 11 11 11 10 10 10 11 9 8 7 7 6 5 5 5 5 5 9 9 8 9 7 6 6 6 6 6 6 8 9 10 11 12
11 11 12 12 13 14 14 10 8 9 9 11 10 10 10 10 12 12 10 9 7 7 7 6 5 6 7 7 8 9 9 8 5 6 6 5 5 5 5 7 9 11 12
12 11 12 12 12 13 15 12 11 8 9 9 10 10 12 13 13 11 12 13 11 11 10 7 7 6 5 6 9 11 11 10 6 8 7 5 5 6 6 9 11 12 13
11 11 12 13 12 14 14 14 12 10 10 10 10 11 11 10 10 10 11 11 11 11 12 10 8 7 5 5 7 8 10 8 7 8 6 4 5 5 6 7 9 11 13
12 12 12 12 12 12 13 13 12 8 9 11 12 12 12 11 12 12 9 9 9 9 13 14 13 11 10 9 7 6 9 10 8 7 6 4 6 6 5 4 7 10 12
12 12 12 11 12 11 11 12 12 8 9 9 9 10 13 14 14 14 10 9 9 8 7 9 10 10 9 9 12 10 10 11 9 6 7 6 9 6 5 4 5 7 9
Wind_Direction
239 253 256 254 246 228 208 208 215 219 222 227 225 217 221 227 233 234 205 185 187 193 195 198 204 209 213 214 214 213 212 211 209 208 209 209 210 210 210 208 206 205 204
241 251 259 250 251 258 256 220 222 229 229 231 233 228 219 231 242 240 217 196 195 200 204 205 208 212 215 216 216 215 214 214 212 211 211 211 211 212 212 211 211 210 209
283 271 264 254 243 245 251 248 242 231 232 230 229 231 225 220 229 233 231 214 203 207 210 210 211 213 215 217 218 218 217 215 214 214 213 213 213 213 212 212 212 212 212
288 277 269 262 247 242 239 236 233 237 239 240 235 232 228 219 222 225 225 221 215 216 214 214 213 213 216 218 219 219 217 216 216 215 215 215 215 214 214 214 214 215 215
303 286 274 270 261 246 240 242 227 227 237 240 237 227 227 224 219 223 219 219 215 215 211 211 212 213 215 219 219 220 218 217 217 217 217 217 217 215 215 215 217 217 216
312 306 293 283 266 250 239 234 233 226 237 242 249 246 226 220 214 214 217 217 214 215 213 208 204 213 215 217 218 219 219 218 218 218 219 219 218 216 216 216 216 218 218
320 305 304 305 288 260 242 236 232 227 231 232 243 257 249 227 216 215 213 216 212 209 209 199 189 195 208 217 218 219 220 220 219 219 219 219 218 217 216 215 216 218 219
310 300 299 297 293 287 268 241 233 230 229 220 217 236 241 230 220 216 202 209 222 208 198 193 186 188 194 199 216 220 221 222 221 220 219 218 217 216 216 216 217 219 220
282 277 287 289 298 296 289 282 254 234 234 241 222 224 239 232 208 209 204 198 196 198 192 183 179 180 193 196 201 211 216 218 220 221 220 219 217 216 216 217 218 220 221
267 259 269 276 282 287 295 291 288 265 246 251 253 240 252 280 279 218 213 186 177 184 198 200 184 173 184 186 187 184 201 209 216 220 220 219 218 216 216 218 220 221 222
248 233 227 242 267 260 264 297 321 309 280 264 261 262 259 249 235 222 222 193 176 179 188 197 183 167 170 170 166 170 185 198 206 213 217 219 219 218 218 219 221 223 223
243 224 211 197 221 245 271 293 298 297 295 286 281 273 266 259 252 238 219 204 192 195 186 180 176 164 151 151 151 149 164 178 191 202 211 215 217 219 220 222 224 226 227
279 245 226 187 207 218 226 233 256 264 276 286 291 285 279 275 288 283 259 233 211 190 167 166 169 161 154 128 127 136 143 156 170 182 195 202 208 213 217 219 222 226 227
297 288 256 213 206 212 228 219 240 246 244 251 266 279 285 283 290 281 274 280 256 206 175 180 163 157 138 130 139 138 133 141 149 163 180 189 191 197 203 209 217 221 224
283 287 290 263 228 214 213 210 223 234 238 241 248 254 265 279 283 285 280 263 252 230 208 195 162 148 132 126 147 142 132 133 134 137 145 160 168 172 180 192 205 215 222
282 278 272 267 257 237 218 210 219 223 223 228 232 238 241 258 277 273 276 272 255 246 236 197 178 157 149 142 148 133 126 126 118 120 121 125 130 135 141 151 166 186 205
286 281 278 273 263 251 235 221 221 221 220 226 232 230 230 233 242 261 268 271 263 251 247 235 157 143 141 135 133 132 140 133 116 115 115 112 112 113 117 119 123 134 158
294 289 281 277 273 264 244 229 224 226 219 219 222 226 227 228 225 223 233 246 247 243 233 228 184 164 157 148 150 156 149 131 122 118 113 109 106 103 102 103 103 102 104
294 289 283 277 274 271 261 244 231 225 222 219 215 218 223 223 224 219 215 221 224 236 218 225 210 183 168 162 156 148 126 124 124 127 116 109 106 102 98 96 97 96 95
290 285 281 277 275 272 266 257 243 231 227 223 218 215 218 220 220 217 220 215 216 220 221 228 225 197 182 172 162 151 145 143 138 135 119 119 113 102 96 93 94 96 97
290 289 285 280 275 270 263 256 249 241 230 226 220 216 219 220 221 216 221 207 206 207 211 217 219 213 199 178 175 167 160 148 136 141 139 140 132 114 101 92 90 95 97
290 288 285 280 275 270 267 259 249 252 238 230 222 216 222 223 222 212 211 205 200 209 212 208 215 216 206 194 179 170 160 157 157 164 153 143 134 115 101 92 97 100 100
294 288 284 278 271 266 264 257 244 244 245 235 228 221 225 226 210 207 209 210 213 218 216 208 214 220 207 196 187 178 173 173 159 158 148 135 123 105 95 96 104 105 104
290 286 282 277 270 264 255 243 234 232 243 240 231 221 217 231 226 209 209 210 210 215 217 217 220 220 221 207 198 187 172 159 134 150 151 135 135 118 107 101 105 111 111
290 285 280 274 267 262 252 236 224 232 236 238 236 228 215 218 220 209 210 215 214 218 219 218 211 211 206 205 193 175 170 165 157 164 172 137 140 126 118 114 112 114 116
288 287 282 275 268 262 248 228 213 228 232 233 231 234 224 213 208 201 204 210 216 220 228 216 215 216 211 205 195 190 182 175 160 163 178 151 153 147 133 133 142 139 124
Height
1522 1523 1523 1524 1524 1524 1524 1524 1525 1527 1528 1529 1531 1532 1533 1535 1536 1538 1539 1540 1541 1543 1547 1549 1550 1552 1555 1557 1559 1562 1564 1567 1569 1571 1573 1575 1577 1579 1581 1583 1586 1588 1590
1518 1518 1518 1519 1519 1520 1520 1520 1521 1522 1523 1525 1526 1528 1528 1530 1531 1533 1534 1535 1537 1539 1542 1544 1546 1548 1550 1552 1555 1558 1560 1563 1565 1568 1570 1572 1574 1577 1579 1581 1583 1585 1587
1514 1514 1513 1513 1514 1515 1515 1515 1516 1517 1518 1520 1521 1523 1524 1525 1526 1527 1529 1531 1533 1535 1537 1539 1541 1543 1545 1548 1550 1553 1556 1559 1561 1564 1566 1569 1571 1573 1576 1578 1580 1582 1584
1508 1508 1507 1507 1508 1509 1509 1509 1510 1511 1513 1514 1516 1518 1519 1520 1521 1522 1524 1526 1528 1529 1531 1534 1536 1538 1540 1543 1546 1548 1551 1554 1557 1559 1562 1564 1567 1569 1572 1574 1577 1579 1581
1503 1502 1501 1501 1501 1502 1502 1504 1504 1505 1507 1509 1511 1513 1514 1515 1516 1517 1519 1521 1522 1525 1527 1529 1531 1533 1535 1538 1540 1543 1546 1549 1552 1555 1557 1560 1563 1565 1568 1570 1573 1575 1578
1498 1497 1496 1495 1495 1495 1496 1498 1499 1500 1502 1503 1506 1508 1509 1510 1511 1512 1514 1516 1518 1520 1522 1524 1526 1528 1530 1533 1535 1538 1541 1544 1547 1550 1552 1555 1557 1560 1563 1566 1569 1571 1574
1495 1493 1492 1491 1491 1490 1490 1492 1494 1495 1497 1499 1502 1503 1504 1505 1506 1508 1509 1511 1513 1515 1517 1519 1521 1523 1525 1528 1530 1533 1535 1538 1541 1544 1547 1549 1552 1555 1558 1561 1564 1566 1569
1492 1490 1489 1488 1487 1486 1485 1487 1489 1491 1492 1495 1497 1499 1500 1502 1501 1503 1504 1506 1509 1511 1513 1515 1517 1519 1521 1523 1525 1528 1530 1532 1535 1538 1541 1544 1547 1550 1553 1556 1558 1561 1564
1489 1487 1486 1485 1484 1483 1483 1483 1485 1487 1489 1491 1493 1495 1497 1496 1497 1498 1499 1502 1504 1507 1509 1512 1514 1516 1518 1519 1521 1523 1525 1527 1530 1532 1535 1538 1541 1544 1547 1550 1553 1556 1559
1486 1485 1484 1483 1482 1481 1481 1481 1482 1484 1485 1487 1488 1491 1493 1494 1494 1495 1497 1499 1501 1503 1506 1509 1510 1512 1514 1516 1517 1519 1521 1523 1525 1527 1530 1533 1536 1539 1542 1545 1548 1550 1553
1484 1482 1480 1479 1479 1478 1478 1478 1479 1480 1481 1483 1484 1486 1488 1490 1491 1493 1494 1496 1498 1500 1502 1505 1507 1509 1510 1512 1513 1515 1517 1519 1520 1522 1525 1527 1530 1533 1536 1539 1542 1545 1547
1481 1479 1477 1476 1475 1475 1475 1475 1476 1476 1477 1479 1480 1482 1484 1486 1487 1489 1491 1493 1495 1497 1499 1501 1503 1506 1507 1509 1510 1511 1513 1515 1516 1518 1520 1523 1525 1528 1531 1533 1536 1539 1542
1478 1477 1475 1473 1472 1472 1472 1472 1472 1472 1473 1474 1475 1477 1479 1481 1483 1485 1488 1489 1491 1493 1495 1497 1500 1502 1504 1505 1506 1508 1510 1511 1512 1514 1516 1518 1520 1523 1525 1528 1531 1533 1536
1474 1473 1471 1469 1468 1468 1468 1468 1468 1468 1469 1469 1471 1472 1474 1476 1478 1481 1483 1485 1487 1489 1491 1493 1495 1498 1500 1501 1503 1505 1506 1507 1509 1510 1512 1514 1516 1518 1521 1523 1526 1528 1530
1468 1468 1467 1465 1464 1463 1463 1463 1464 1464 1464 1465 1466 1467 1468 1470 1472 1475 1477 1480 1483 1484 1487 1489 1491 1494 1495 1497 1499 1501 1502 1504 1505 1506 1508 1510 1512 1514 1516 1518 1521 1523 1525
1462 1461 1461 1460 1459 1458 1458 1458 1458 1459 1460 1460 1461 1462 1463 1465 1467 1469 1471 1474 1477 1480 1482 1484 1487 1489 1492 1494 1496 1498 1499 1501 1502 1503 1505 1506 1508 1510 1512 1514 1516 1518 1520
1455 1454 1453 1453 1453 1453 1453 1453 1453 1454 1455 1456 1456 1457 1458 1459 1461 1463 1466 1468 1471 1474 1477 1479 1483 1486 1488 1490 1493 1495 1496 1497 1499 1500 1501 1503 1505 1506 1508 1510 1512 1514 1516
1448 1447 1446 1445 1445 1445 1446 1446 1447 1448 1449 1450 1451 1452 1454 1455 1456 1458 1460 1462 1465 1468 1471 1474 1478 1481 1484 1487 1490 1492 1493 1494 1496 1497 1499 1500 1502 1503 1505 1507 1508 1510 1511
1441 1440 1438 1437 1437 1437 1438 1439 1439 1441 1442 1444 1445 1447 1448 1450 1451 1452 1454 1457 1459 1462 1465 1469 1472 1476 1480 1483 1486 1489 1490 1492 1494 1495 1496 1498 1499 1501 1502 1504 1505 1506 1507
1433 1431 1430 1429 1429 1428 1429 1430 1431 1433 1435 1436 1438 1440 1442 1444 1445 1448 1449 1451 1453 1456 1459 1463 1466 1470 1474 1477 1481 1484 1487 1489 1491 1493 1494 1495 1497 1498 1500 1501 1502 1503 1504
1426 1424 1422 1420 1420 1420 1420 1421 1422 1424 1426 1429 1431 1433 1436 1438 1440 1442 1444 1446 1448 1450 1453 1456 1460 1464 1467 1471 1475 1478 1482 1485 1488 1491 1492 1494 1495 1496 1497 1499 1500 1501 1502
1419 1416 1414 1412 1411 1411 1411 1412 1413 1415 1418 1421 1423 1426 1429 1432 1434 1436 1439 1441 1443 1445 1448 1450 1453 1457 1460 1465 1470 1474 1477 1481 1484 1488 1490 1492 1494 1495 1496 1497 1499 1499 1500
1411 1408 1406 1404 1402 1401 1402 1402 1404 1406 1409 1412 1416 1419 1423 1426 1428 1430 1433 1435 1437 1440 1443 1445 1448 1451 1455 1459 1464 1468 1471 1476 1480 1483 1487 1490 1492 1493 1495 1496 1498 1499 1500
1404 1400 1397 1395 1393 1392 1393 1394 1395 1398 1400 1404 1408 1412 1416 1419 1422 1425 1427 1430 1432 1434 1437 1440 1443 1446 1450 1454 1459 1463 1467 1473 1477 1481 1484 1487 1489 1491 1493 1495 1497 1498 1499
1397 1393 1390 1388 1386 1385 1385 1386 1388 1390 1392 1396 1401 1406 1409 1412 1416 1420 1422 1425 1427 1430 1433 1435 1438 1442 1445 1449 1453 1458 1463 1467 1471 1475 1480 1483 1486 1489 1491 1493 1495 1497 1498
1390 1387 1383 1381 1379 1378 1378 1379 1381 1383 1385 1390 1394 1399 1403 1406 1410 1414 1417 1420 1423 1426 1429 1431 1433 1436 1440 1443 1447 1451 1456 1461 1464 1470 1474 1478 1481 1485 1489 1491 1493 1495 1497